Location: *
(50.3194°N, 7.1067°E)
Time: 02:49:01
(UTC+00:00)

ASTEX 1 - Pass Details

Date: 22 September 2019
Orbit: 720 x 744 km, 92.7° (Epoch: 18 October)

Event Time Altitude Azimuth Distance (km) Brightness Sun altitude
Rises 19:07:34 0° 3° (N) 3,146 6.9 -16.0°
Reaches altitude 10° 19:09:52 10° 2° (N) 2,220 6.1 -16.3°
Maximum altitude 19:14:44 69° 279° (W) 773 3.7 -17.1°
Drops below altitude 10° 19:19:34 10° 197° (SSW) 2,205 5.8 -17.8°
Sets 19:21:51 0° 195° (SSW) 3,124 6.6 -18.1°
